Location: Arroyo Retuerta
(40.5469°N, 4.3534°W)
Time: 04:58:53
(UTC+00:00)

Cosmos 1378 - Pass Details

Date: 01 June 2020
Orbit: 492 x 502 km, 82.5° (Epoch: 05 July)

Event Time Altitude Azimuth Distance (km) Brightness Sun altitude
Exits shadow 21:09:39 22° 112° (ESE) 1,127 4.4 -13.8°
Maximum altitude 21:10:30 24° 90° (E) 1,065 4.4 -13.9°
Drops below altitude 10° 21:13:32 10° 35° (NE) 1,702 6.0 -14.3°
Sets 21:15:55 0° 22° (NNE) 2,588 7.1 -14.6°
